Location: Buisson
(44.2787°N, 4.9969°E)
Time: 06:46:05
(UTC+00:00)

Meteor 1-13 Rocket - Pass Details

Date: 18 April 2021
Orbit: 829 x 913 km, 81.3° (Epoch: 06 May)

Event Time Altitude Azimuth Distance (km) Brightness Sun altitude
Exits shadow 02:50:55 27° 191° (S) 1,634 5.3 -19.9°
Maximum altitude 02:54:14 87° 279° (W) 888 4.2 -19.4°
Drops below altitude 10° 02:59:59 10° 10° (N) 2,518 7.3 -18.6°
Sets 03:02:24 0° 11° (N) 3,447 8.1 -18.2°
